Flag for Germany Weather past 2 weeks in Wittmund, Lower Saxony, Germany

Now
61 °F

Scattered clouds.


Feels Like: 61 °F
Forecast: 40 / 50 °F
Wind: 20 mph from Southwest

Location: Wittmundhaven


UV Index: 3 (Moderate)

Visibility: N/A


Pressure: 30.01 "Hg

Humidity: 36%

Dew point: 34 °F

Location of WittmundLocation

Historic Weather in Wittmund

°F

Wittmund temperature yesterday

Maximum temperature yesterday: 55 °F (at 2:20 PM)
Minimum temperature yesterday: 30 °F (at 4:20 AM)
Average temperature yesterday: 44 °F

Past Weeks' High & Low Weather Summary

 TemperatureHumidityPressure
High64 °F (Apr 7, 7:20 PM)100% (Apr 2, 8:20 PM)30.48 "Hg (Apr 2, 8:20 PM)
Low30 °F (Apr 16, 4:20 AM)33% (Apr 16, 3:20 PM)29.62 "Hg (Apr 8, 5:20 AM)
Average49 °F80%30.00 "Hg
* Reported Apr 2 2:20 PM — Apr 17 2:20 PM, Wittmund, Weather by CustomWeather, © 2014

Note: Actual official high and low records may vary slightly from our data, if they occured in-between our weather recording intervals... More about our weather records

Advertising

Historic Weather Conditions — Data for Previous 24 hours

 ConditionsComfort  
Time TempWeatherWind HumidityBarometerVisibility
2:20 PM
Apr 17
61 °FScattered clouds.20 mph36%30.01 "HgN/A
1:20 PM59 °FScattered clouds.20 mph42%30.04 "HgN/A
12:20 PM55 °FBroken clouds.17 mph51%30.07 "HgN/A
11:20 AM54 °FPartly sunny.16 mph54%30.12 "HgN/A
10:20 AM50 °FPartly sunny.16 mph58%30.15 "HgN/A
9:20 AM48 °FPartly sunny.14 mph62%30.15 "HgN/A
8:20 AM46 °FPartly sunny.12 mph62%30.15 "HgN/A
7:20 AM43 °FPassing clouds.8 mph71%30.18 "HgN/A
6:20 AM41 °FPassing clouds.7 mph76%30.21 "HgN/A
5:20 AM41 °FPassing clouds.6 mph70%30.21 "HgN/A
4:20 AM41 °FPassing clouds.6 mph70%30.24 "HgN/A
3:20 AM43 °FPassing clouds.7 mph71%30.27 "HgN/A
2:20 AM43 °FPassing clouds.6 mph71%30.30 "HgN/A
1:20 AM43 °FPassing clouds.6 mph71%30.30 "HgN/A
12:20 AM43 °FPassing clouds.2 mph76%30.33 "HgN/A
11:20 PM
Apr 16
45 °FPassing clouds.3 mph76%30.33 "HgN/A
10:20 PM45 °FPassing clouds.3 mph76%30.36 "HgN/A
9:20 PM46 °FPartly sunny.6 mph71%30.36 "HgN/A
8:20 PM50 °FPartly sunny.6 mph58%30.36 "HgN/A
7:20 PM54 °FPartly sunny.7 mph47%30.36 "HgN/A
6:20 PM54 °FScattered clouds.8 mph44%30.39 "HgN/A
5:20 PM55 °FScattered clouds.6 mph41%30.39 "HgN/A
4:20 PM55 °FScattered clouds.6 mph44%30.42 "HgN/A
3:20 PM55 °FScattered clouds.2 mph33%30.42 "HgN/A
Weather by CustomWeather, © 2014

See weather overview